Showing default

SNUSAT-2, 43782

Orbit data source: Space-Track

SNUSAT-2, 43782 is a payload satellite owned by SNU (KR) in SSO that was launched on Mon, 03 Dec 2018 UTC via an FALCON 9 launch vehicle from the Air Force Western Test Range (AFWTR). Payloads include a variety of satellites, spacecraft, and rockets equipped with specific instruments for various scientific and technological missions. These include communications satellites like Starlink; space stations such as the ISS; scientific satellites like the Hubble; Earth observation satellites from companies like Planet Labs, Umbra, and HawkEye 360; GPS; miniature CubeSats for education and research; and military/defense satellites.

Loading next visibility...
SNUSAT-2 details
Identifier
43782, 2018-099AA
Orbit
SSO
Last TLE update10 hours ago
Origin
Flag of KRSNU (KR / SKOR)
ManufacturerSNU
MissionOperational Amateur Technology
Bus & MotorCUBESAT 3U, Unknown motor
Mass4 kg wet, 4 kg dry
Launch date (UTC)
2018-12-03 (6 years ago)
Launch vehicle
FALCON 9
Launch site
Air Force Western Test Range (AFWTR)
Object type
Payload
Rocket body
Debris
Shape & HBRBox, 0.3 m
Radar Cross Section0.035 m², Small (<0.1 m²)

Expand to show TLE details & history

TLE from 10 hours ago
0 SNUSAT-2
1 43782U 18099AA  24361.09483433  .00014913  00000-0  91078-3 0  9997
2 43782  97.4889  53.3473 0013372  11.5152 348.6381 15.10312667331481
Epoch: 2024-12-26T02:16Z
Definitive object data (Epoch: 2024-12-26T02:16:33.686Z)
Latitude0.00001°
Longitude-75.87222°
Altitude529.256 km
Speed7.603 km/s
True Right ascension03h 33m 23s
True Declination0° 00' 00"
Sunlit
Object was in full shadow at TLE epoch
Visualization TLE readout
Latitude48.03446°
Longitude112.89894°
Altitude547.585 km
Speed7.59 km/s
Apparent Right ascension20h 06m 30s
Apparent Declination11° 30' 31"
Sunlit
Object is in daylight
Visualization observer readout
Local Sidereal Time11:45:16
Azimuth57.143° ENE
Elevation-17.841°
Doppler factor1
Orbital elements
Apogee altitude541.469 km
Perigee altitude522.987 km
Semi-major axis6,910.365 km
Eccentricity0.0013372
Inclination97.4889°
RAAN53.3473°
Arg. of periapsis11.5152°
True anomaly348.60786°
Mean anomaly348.6381°
Eccentric anomaly348.62299°
Mean motion3.77826 °/min
BSTAR0.00091078
Orbital period95.28 mins
Loading maneuver chart data...
Loading historical data...
Loading historical data...
Loading historical data...
Loading historical data...
Loading historical data...
Loading historical data...
Loading historical data...

SNUSAT-2 Visibility forecast

Observer location: undefined°, undefined

Span
Click to sort rows by Start time (UTC) header in descending order
Start Az.
Max El. time (UTC)
Max El. Az.
Max El.
End time (UTC)
End Az.
5 mins2024-12-26 17:09:45.996Z337.918° N2024-12-26 17:11:45.996Z285.59° WNW29.174°2024-12-26 17:14:45.996Z225.839° WSW
5 mins2024-12-27 03:51:45.996Z176.067° S2024-12-27 03:53:45.996Z292.123° WNW43.954°2024-12-27 03:56:45.996Z344.126° N
|